388  
ASUS44 KLZK 160615  
RWRLZK  
 
WEATHER ROUNDUP FOR ARKANSAS  
NATIONAL WEATHER SERVICE LITTLE ROCK AR  
100 AM CDT THU AUG 16 2018  
 
NOTE: "FAIR" INDICATES FEW OR NO CLOUDS BELOW 12,000 FEET WITH NO  
SIGNIFICANT WEATHER AND/OR S TO VISIBILITY
.  
 
ARZ001-003-010-029-160700-  
NORTHWEST ARKANSAS  
 
CITY SKY/WX TMP DP RH WIND PRES REMARKS
 
FAYETTEVILLE CLOUDY 74 74 100 SW5 29.99R  
6HR MIN TEMP: 73; 6HR MAX TEMP: 77; 6HR PCP: TRACE;  
 
FORT SMITH PTCLDY 74 73 97 CALM 29.94S  
6HR MIN TEMP: 74; 6HR MAX TEMP: 78;  
 
HARRISON CLOUDY 73 72 96 S3 29.98F  
6HR MIN TEMP: 72; 6HR MAX TEMP: 77;  
 
BENTONVILLE MOCLDY 73 72 96 CALM 30.00S  
6HR MIN TEMP: 73; 6HR MAX TEMP: 80;  
 
ROGERS CLOUDY 74 72 93 SW5 29.99S  
6HR MIN TEMP: 73; 6HR MAX TEMP: 79;  
 
SILOAM SPGS CLOUDY 73 72 96 S3 29.98S  
6HR MIN TEMP: 73; 6HR MAX TEMP: 80;  
 
HIGHFILL CLOUDY 73 71 93 CALM 29.99R  
6HR MIN TEMP: 73; 6HR MAX TEMP: 80;  
 

 
 
ARZ004-005-016-160700-  
NORTH CENTRAL ARKANSAS  
 
CITY SKY/WX TMP DP RH WIND PRES REMARKS
 
BATESVILLE CLOUDY 76 75 97 E3 29.95F  
6HR MIN TEMP: 76; 6HR MAX TEMP: 79; 6HR PCP: 0.48;  
 
FLIPPIN CLOUDY 73 73 100 CALM 29.96S  
6HR MIN TEMP: 73; 6HR MAX TEMP: 80; 6HR PCP: 0.03;  
 
MTN HOME CLOUDY 73 73 100 S3 29.96S  
6HR MIN TEMP: 73; 6HR MAX TEMP: 78;  
 

 
 
ARZ040-041-160700-  
WEST CENTRAL ARKANSAS  
 
CITY SKY/WX TMP DP RH WIND PRES REMARKS
 
MENA PTCLDY 82 75 78 SW3 29.99S HX 89  
MOUNT IDA PTCLDY 78 74 87 CALM 29.96S  
6HR MIN TEMP: 77; 6HR MAX TEMP: 85;  
 

 
 
ARZ009-017-025-026-028-160700-  
NORTHEAST ARKANSAS  
 
CITY SKY/WX TMP DP RH WIND PRES REMARKS
 
CORNING CLOUDY 75 75 100 SW10G17 29.98R THUNDER  
JONESBORO TSTM 75 75 100 N9 29.94F FOG  
6HR MIN TEMP: 75; 6HR MAX TEMP: 83; 6HR PCP: 1.19;  
 
NEWPORT CLOUDY 77 75 93 W6 29.95R  
6HR MIN TEMP: 75; 6HR MAX TEMP: 79; 6HR PCP: 0.23;  
 
WALNUT RIDGE N/A 74 72 93 SE12 29.94F  
6HR MIN TEMP: 74; 6HR MAX TEMP: 82; 6HR PCP: 0.49;  
 
BLYTHEVILLE LGT RAIN 78 74 87 NE6 29.95S  
6HR MIN TEMP: 78; 6HR MAX TEMP: 86; 6HR PCP: 0.01;  
 

 
 
ARZ022-023-033-042-044-160700-  
CENTRAL ARKANSAS  
 
CITY SKY/WX TMP DP RH WIND PRES REMARKS
 
LITTLE ROCK MOCLDY 80 74 81 S10 29.95F HX 85  
6HR MIN TEMP: 78; 6HR MAX TEMP: 80;  
 
N LITTLE ROCK N/A 78 75 90 SW6 29.97S  
6HR MIN TEMP: 78; 6HR MAX TEMP: 80;  
 
CONWAY N/A 79 75 89 S5 29.94S  
SEARCY MOCLDY 77 77 100 CALM 29.95F  
6HR MIN TEMP: 77; 6HR MAX TEMP: 81; 6HR PCP: 0.04;  
 
HOT SPRINGS CLEAR 79 75 87 CALM 29.97S  
6HR MIN TEMP: 78; 6HR MAX TEMP: 86;  
 
RUSSELLVILLE FOG 74 74 100 CALM 29.94S VSB 3/4  
6HR MIN TEMP: 74; 6HR MAX TEMP: 78;  
 
CLINTON DRIZZLE 73 73 100 CALM 29.96S  

 
 
ARZ036-160700-  
EAST ARKANSAS  
 
CITY SKY/WX TMP DP RH WIND PRES REMARKS
 
WEST MEMPHIS MOCLDY 81 75 82 S8 29.95S HX 87  
6HR MIN TEMP: 78; 6HR MAX TEMP: 86; 6HR PCP: TRACE;  
 

 
 
ARZ050-053-066-070-073-160700-  
SOUTHWEST ARKANSAS  
 
CITY SKY/WX TMP DP RH WIND PRES REMARKS
 
ARKADELPHIA FAIR 76 75 97 CALM 29.97S  
6HR MIN TEMP: 76; 6HR MAX TEMP: 87;  
 
CAMDEN FAIR 79 72 78 CALM 29.97S  
TEXARKANA CLEAR 81 72 74 S6 29.98R HX 85  
6HR MIN TEMP: 81; 6HR MAX TEMP: 91;  
 
EL DORADO FAIR 80 72 76 S5 29.99S  
6HR MIN TEMP: 79; 6HR MAX TEMP: 92;  
 
DE QUEEN CLEAR 75 75 100 CALM 29.94S FOG  
6HR MIN TEMP: 75; 6HR MAX TEMP: 91;  
 

 
 
ARZ056-057-069-160700-  
SOUTHEAST ARKANSAS  
 
CITY SKY/WX TMP DP RH WIND PRES REMARKS
 
PINE BLUFF FAIR 78 72 81 S6 29.97S  
6HR MIN TEMP: 78; 6HR MAX TEMP: 84;  
 
STUTTGART FAIR 82 75 79 S9 29.96F HX 89  
6HR MIN TEMP: 80; 6HR MAX TEMP: 87; 6HR PCP: TRACE;  
 
MONTICELLO FAIR 82 71 69 S3 29.98S HX 86  
6HR MIN TEMP: 82; 6HR MAX TEMP: 90;  
 

 
 
 
 
CLICK HERE TO GO TO PREVIOUS BULLETINS.

The Nexlab AR Page Main Text Page